[[{"header":{"parameterUnit":"m.s-1","parameterCategory":1,"la1":30.2991,"la2":30.254,"lo1":-89.0895,"lo2":-89.0444,"dy":0.0017,"dx":0.0017,"nx":28,"ny":28,"refTime":"2025-03-10T21:00:00:Z","depth":0,"parameterNumber":2,"parameterNumberName":"U-component_of_WINDS"},"data":[0,0,0,0,0,0,0,0,0,0,0,0,0,0,0,0,0,0,0,0,0,0,0,0,0,0,0,0,0,0,0,0,0,0,0,0,0,0,0,0,0,0,0,0,0,0,0,0,0,0,0,0,0,0,0,0,0,0,0.287,0.2871,0,0.2939,0.2939,0.294,0.2959,0.2959,0.2958,0.2958,0.3032,0.3034,0.3037,0,0,0,0,0,0,0,0,0,0,0,0,0,0.2759,0.2761,0.287,0.2871,0.2872,0.2939,0.2939,0.294,0.2959,0.2959,0.2958,0.2958,0.3031,0.3034,0.3037,0,0,0,0,0,0,0,0,0,0,0,0,0,0.2816,0.2762,0.287,0.2889,0.2891,0.2938,0.294,0.2941,0.2959,0.2959,0.2958,0.2958,0.303,0.3034,0.3037,0.3071,0,0,0.3048,0.305,0,0,0,0,0,0,0,0,0.2813,0.282,0.2885,0.2888,0.2891,0.294,0.2928,0.2985,0.2959,0.2934,0.2958,0.2957,0.3002,0.3008,0.3022,0.3075,0.3078,0.3048,0.305,0.3052,0.3053,0,0,0,0,0,0,0,0.2809,0.2817,0.2897,0.2886,0.289,0.2896,0.2903,0.2939,0.2971,0.2936,0.2937,0.2945,0.3003,0.3019,0.3024,0.3079,0.3048,0.3051,0.3053,0.3055,0.3165,0.3165,0,0,0,0,0,0,0.2801,0.2814,0.2895,0.2899,0.2849,0.2898,0.2906,0.2925,0.297,0.2976,0.2945,0.2946,0.3013,0.302,0.3027,0.3071,0.3052,0.3055,0.3057,0.3164,0.3165,0.3166,0,0,0,0,0,0,0.2798,0.2808,0.2892,0.2857,0.2868,0.2901,0.2921,0.2926,0.2942,0.2977,0.2984,0.2955,0.3013,0.3022,0.306,0.3074,0.3057,0.306,0.3163,0.3164,0.3165,0.3159,0,0,0,0,0,0,0.2795,0.2807,0.2819,0.2857,0.287,0.2923,0.2922,0.2928,0.2947,0.2948,0.2988,0.2994,0.3013,0.3055,0.3064,0.3078,0.3063,0.3162,0.3164,0.3165,0.3158,0.316,0.3161,0,0,0,0,0,0.2791,0.2815,0.282,0.2829,0.2886,0.2924,0.2932,0.2952,0.2948,0.2962,0.2985,0.2993,0.307,0.3058,0.3069,0.3085,0.3161,0.3163,0.3165,0.3157,0.3159,0.3161,0,0,0,0,0,0,0.2779,0.282,0.2826,0.2862,0.2889,0.2927,0.2944,0.2953,0.2982,0.2982,0.3007,0.3016,0.3053,0.3073,0.3059,0.3121,0.3116,0.312,0.3107,0.3109,0.3111,0.3106,0.3066,0,0,0,0,0,0.278,0.2806,0.2842,0.2871,0.2884,0.2912,0.2929,0.2942,0.2972,0.2984,0.301,0.3039,0.3071,0.3091,0.3121,0.316,0.3171,0.3177,0.3178,0.3179,0.3183,0.3207,0.3211,0.3172,0.3172,0.3172,0,0,0.2784,0.2809,0.2825,0.2869,0.2891,0.292,0.2921,0.2951,0.2973,0.2989,0.3027,0.3047,0.3082,0.3121,0.3139,0.3138,0.3196,0.3181,0.3182,0.3185,0.3209,0.3213,0.3216,0.3173,0.3173,0.3173,0,0,0.2805,0.2826,0.2853,0.2876,0.2909,0.2928,0.2934,0.2971,0.2985,0.3023,0.3036,0.3063,0.3115,0.314,0.316,0.3191,0.3201,0.32,0.3209,0.3232,0.3235,0.3238,0.3252,0.3256,0.3203,0.3203,0.3203,0,0.2805,0.2847,0.2866,0.2896,0.2916,0.293,0.2959,0.298,0.3023,0.3037,0.3034,0.3102,0.3126,0.3172,0.318,0.3194,0.3204,0.3197,0.3233,0.3236,0.3239,0.3252,0.3257,0.3203,0.3203,0.3203,0.3203,0,0.2847,0.2876,0.2894,0.2934,0.2956,0.2985,0.301,0.303,0.3041,0.306,0.31,0.313,0.3167,0.3179,0.3191,0.3228,0.3226,0.3228,0.3224,0.3243,0.3255,0.326,0.3203,0.3203,0.3203,0.3203,0,0,0.2863,0.2913,0.292,0.2939,0.2977,0.3001,0.3031,0.3067,0.3085,0.3113,0.3141,0.3185,0.3188,0.321,0.3224,0.3244,0.327,0.3244,0.3246,0.325,0.3315,0.3315,0.332,0.3276,0.3277,0.3277,0.3313,0,0.289,0.2944,0.2962,0.3007,0.3036,0.305,0.3077,0.3104,0.3123,0.3151,0.3172,0.3204,0.3204,0.3218,0.3238,0.3262,0.3284,0.326,0.3304,0.3305,0.3297,0.3327,0.3326,0.3358,0.3318,0.3319,0.3319,0,0.293,0.2958,0.3006,0.3042,0.3055,0.3078,0.3113,0.3139,0.3171,0.3184,0.3209,0.3222,0.3256,0.3249,0.3298,0.3281,0.33,0.3315,0.3317,0.3323,0.3315,0.3336,0.3369,0.3374,0.3327,0.3326,0.3326,0,0.2939,0.299,0.3025,0.304,0.3083,0.31,0.3118,0.315,0.3171,0.3202,0.3216,0.3251,0.327,0.3298,0.3321,0.3313,0.3369,0.3363,0.3382,0.3382,0.3394,0.3394,0.3433,0.3403,0.3403,0.3403,0.3403,0,0.2969,0.2998,0.303,0.3052,0.3086,0.3107,0.314,0.316,0.3188,0.3216,0.323,0.3256,0.3284,0.3314,0.3332,0.3371,0.3379,0.3392,0.3397,0.3392,0.3391,0.3406,0.3405,0.3404,0.3404,0.3404,0.3403,0,0.2985,0.3008,0.3048,0.3085,0.3095,0.3118,0.3151,0.3174,0.3193,0.3228,0.3237,0.3268,0.3304,0.333,0.3376,0.3389,0.3432,0.3435,0.3421,0.3423,0.3442,0.3441,0.3495,0.3504,0.3465,0.3466,0.3466,0,0.3004,0.3026,0.3066,0.3085,0.3103,0.3133,0.3155,0.3177,0.3199,0.3238,0.3257,0.3293,0.3324,0.3382,0.341,0.3446,0.3452,0.3468,0.3458,0.3453,0.3455,0.3455,0.3458,0.3471,0.3471,0.3471,0.3471,0,0.3035,0.3045,0.3074,0.3108,0.3133,0.316,0.3189,0.3204,0.3231,0.3255,0.3292,0.3316,0.3364,0.3401,0.344,0.3462,0.3472,0.3474,0.3481,0.3477,0.3469,0.3476,0.3427,0.3473,0.3473,0.3473,0.3473,0.3473,0.3054,0.3076,0.3107,0.314,0.3163,0.3189,0.3213,0.3235,0.3266,0.3306,0.3317,0.3356,0.339,0.3443,0.3465,0.3497,0.3496,0.3505,0.3508,0.3511,0.3512,0.3462,0.3504,0.3504,0.3504,0.3504,0.3504,0,0.3088,0.3109,0.3138,0.3177,0.3204,0.3209,0.3241,0.3263,0.3297,0.3326,0.3356,0.34,0.3436,0.3467,0.3505,0.3525,0.3531,0.3535,0.3535,0.354,0.3509,0.3501,0.3529,0.3529,0.3529,0.3529,0.3529,0.3529,0.3108,0.3146,0.316,0.321,0.3231,0.3268,0.3286,0.3311,0.3335,0.3382,0.3412,0.3431,0.3462,0.3503,0.3538,0.3546,0.3561,0.3564,0.3573,0.3545,0.3542,0.3539,0.3531,0.3566,0.3566,0.3602,0.3602,0.3602]},{"header":{"parameterUnit":"m.s-1","parameterCategory":1,"la1":30.2991,"la2":30.254,"lo1":-89.0895,"lo2":-89.0444,"dy":0.0017,"dx":0.0017,"nx":28,"ny":28,"refTime":"2025-03-10T21:00:00:Z","depth":0,"parameterNumber":3,"parameterNumberName":"V-component_of_WINDS"},"data":[0,0,0,0,0,0,0,0,0,0,0,0,0,0,0,0,0,0,0,0,0,0,0,0,0,0,0,0,0,0,0,0,0,0,0,0,0,0,0,0,0,0,0,0,0,0,0,0,0,0,0,0,0,0,0,0,0,0,3.1072,3.1073,0,3.11,3.11,3.1101,3.1125,3.1125,3.1125,3.1125,3.115,3.115,3.115,0,0,0,0,0,0,0,0,0,0,0,0,0,3.1038,3.1038,3.1072,3.1073,3.1073,3.11,3.11,3.1101,3.1125,3.1125,3.1125,3.1126,3.115,3.115,3.1151,0,0,0,0,0,0,0,0,0,0,0,0,0,3.1058,3.1038,3.1072,3.1088,3.109,3.11,3.11,3.1101,3.1125,3.1125,3.1125,3.1126,3.1149,3.115,3.1151,3.1146,0,0,3.1152,3.1153,0,0,0,0,0,0,0,0,3.1056,3.1059,3.1086,3.1087,3.1089,3.111,3.1097,3.1116,3.1124,3.1111,3.1125,3.1126,3.1136,3.1137,3.1142,3.1147,3.1148,3.1152,3.1153,3.1153,3.1153,0,0,0,0,0,0,0,3.1055,3.1058,3.1083,3.1086,3.1088,3.1093,3.1097,3.1101,3.1121,3.1112,3.1114,3.1117,3.1137,3.1141,3.1142,3.1148,3.1152,3.1153,3.1153,3.1153,3.1153,3.1152,0,0,0,0,0,0,3.1052,3.1056,3.1082,3.1084,3.1074,3.1094,3.1097,3.1102,3.1121,3.1124,3.1117,3.1118,3.114,3.1142,3.1143,3.114,3.1153,3.1154,3.1154,3.1153,3.1153,3.1152,0,0,0,0,0,0,3.1051,3.1054,3.1081,3.1071,3.1075,3.1094,3.1099,3.1103,3.1107,3.1124,3.1128,3.1118,3.114,3.1142,3.1146,3.1141,3.1154,3.1154,3.1153,3.1153,3.1152,3.1133,0,0,0,0,0,0,3.105,3.1053,3.1052,3.1071,3.1075,3.1084,3.1099,3.1103,3.1109,3.1111,3.1126,3.1129,3.1141,3.1145,3.1146,3.1142,3.1155,3.1154,3.1153,3.1153,3.1134,3.1131,3.113,0,0,0,0,0,3.1048,3.1044,3.1052,3.1055,3.1074,3.1084,3.1086,3.1101,3.1108,3.1107,3.1118,3.1128,3.1141,3.1145,3.1147,3.1143,3.1154,3.1153,3.1153,3.1135,3.1132,3.113,0,0,0,0,0,0,3.1022,3.1047,3.1056,3.1057,3.1069,3.1088,3.1086,3.1097,3.1105,3.1107,3.1124,3.1127,3.1128,3.1136,3.1139,3.114,3.1149,3.1149,3.1135,3.1133,3.113,3.1129,3.1155,0,0,0,0,0,3.1017,3.1024,3.1044,3.1044,3.1049,3.1067,3.1071,3.1082,3.1094,3.1098,3.1109,3.1119,3.1126,3.1129,3.1136,3.1135,3.1139,3.1133,3.1131,3.113,3.1129,3.113,3.1128,3.115,3.115,3.115,0,0,3.1005,3.102,3.1022,3.1039,3.1049,3.1055,3.107,3.1075,3.108,3.1098,3.1103,3.1112,3.1124,3.1125,3.1126,3.1131,3.1124,3.1128,3.1127,3.1127,3.1129,3.1127,3.1125,3.1149,3.1149,3.1149,0,0,3.0988,3.0999,3.1001,3.1011,3.1027,3.1039,3.104,3.1058,3.1065,3.107,3.1085,3.109,3.11,3.1109,3.1114,3.1103,3.1113,3.1104,3.1093,3.1094,3.1092,3.1091,3.1087,3.1086,3.1103,3.1103,3.1103,0,3.0971,3.0982,3.1,3.1005,3.1012,3.1031,3.1033,3.1042,3.1058,3.1062,3.1068,3.1083,3.1093,3.1097,3.1095,3.1098,3.1099,3.1102,3.1091,3.109,3.1089,3.1086,3.1084,3.1102,3.1103,3.1103,3.1103,0,3.0961,3.0968,3.0968,3.0986,3.0993,3.0996,3.1014,3.1019,3.1029,3.1041,3.1046,3.1059,3.1069,3.1071,3.108,3.1077,3.108,3.1088,3.1098,3.1086,3.1083,3.1082,3.1101,3.1101,3.1102,3.1102,0,0,3.0926,3.0956,3.0956,3.0965,3.0984,3.099,3.0994,3.1006,3.1011,3.1021,3.1026,3.1035,3.1044,3.105,3.1061,3.1062,3.1053,3.107,3.1071,3.1067,3.1051,3.1045,3.1044,3.106,3.106,3.106,3.1051,0,3.0912,3.0923,3.094,3.0945,3.0953,3.0972,3.0976,3.0988,3.0999,3.1007,3.1018,3.1026,3.1036,3.104,3.1042,3.1054,3.105,3.1055,3.1064,3.1064,3.1061,3.1042,3.1035,3.1026,3.105,3.1049,3.1049,0,3.0897,3.0909,3.0915,3.0937,3.094,3.0944,3.0957,3.0964,3.0979,3.0987,3.0995,3.1008,3.1013,3.1023,3.103,3.1033,3.1038,3.1045,3.1045,3.1046,3.1056,3.1043,3.1023,3.1022,3.1048,3.1048,3.1048,0,3.0872,3.089,3.0897,3.0904,3.0928,3.093,3.094,3.0956,3.0962,3.0974,3.0978,3.0989,3.0995,3.1003,3.1019,3.1024,3.1025,3.1035,3.1032,3.1031,3.1031,3.1031,3.1012,3.1033,3.1033,3.1033,3.1034,0,3.0854,3.0857,3.0886,3.089,3.0894,3.0914,3.0918,3.0929,3.0943,3.0949,3.0966,3.0971,3.0991,3.0998,3.101,3.1015,3.1018,3.1024,3.1027,3.1023,3.1022,3.1026,3.1027,3.1033,3.1033,3.1033,3.1033,0,3.0827,3.0846,3.0855,3.0879,3.0885,3.0887,3.0907,3.0911,3.0924,3.0932,3.0935,3.0955,3.0965,3.0981,3.0995,3.1003,3.1006,3.1011,3.1002,3.1004,3.0999,3.1,3.0982,3.0981,3.1003,3.1003,3.1003,0,3.0814,3.0818,3.0843,3.0849,3.086,3.0869,3.0877,3.0897,3.0905,3.0923,3.0925,3.0937,3.0947,3.0962,3.0977,3.0988,3.0993,3.0987,3.0995,3.0991,3.0994,3.0994,3.0995,3.0984,3.0984,3.0984,3.0984,0,3.0791,3.0801,3.0813,3.0828,3.0838,3.085,3.0863,3.0867,3.089,3.0898,3.0909,3.0917,3.0933,3.0944,3.0958,3.0967,3.0979,3.0981,3.0981,3.0977,3.0971,3.0975,3.0997,3.0981,3.0981,3.0982,3.0982,3.0982,3.0771,3.0776,3.0795,3.0808,3.0821,3.0833,3.0839,3.0854,3.0865,3.0881,3.0891,3.0902,3.0918,3.0938,3.0947,3.0955,3.096,3.096,3.096,3.096,3.0958,3.097,3.0957,3.0958,3.0958,3.0958,3.0958,0,3.0749,3.0763,3.0775,3.0795,3.0805,3.0817,3.0833,3.084,3.0851,3.0865,3.0876,3.089,3.0901,3.0918,3.0931,3.0934,3.094,3.0937,3.0937,3.0939,3.0952,3.0952,3.0932,3.0932,3.0932,3.0932,3.0932,3.0932,3.0739,3.0748,3.0761,3.0776,3.079,3.0803,3.0811,3.0823,3.0835,3.085,3.0861,3.0872,3.0888,3.0902,3.0914,3.0918,3.0922,3.0918,3.0924,3.0936,3.0938,3.094,3.094,3.0918,3.0918,3.091,3.091,3.091]}]]